RH
22 19 11 6 6 6 8 11 14 15 13 13 16 17 15 13 13 14 16 15 16 14 11 28 31 27 25 23 22 21 36 40 42 34 28 29 35 31 30 37 40 46 46 48 48
20 15 8 7 8 8 8 10 11 13 14 16 20 20 16 14 14 15 14 15 16 17 16 11 17 27 28 26 21 22 38 33 34 32 32 36 38 38 39 37 38 40 43 44 46
18 15 8 5 6 10 10 10 12 13 16 18 20 18 15 14 17 15 14 14 15 17 18 18 15 12 12 17 21 24 28 35 34 38 37 37 38 38 40 42 41 43 44 45 47
17 13 8 6 4 6 11 10 13 15 16 16 20 18 18 19 19 18 16 15 16 16 17 17 18 17 16 22 24 24 33 40 38 40 39 39 39 41 39 39 39 42 43 43 44
15 8 8 10 7 5 11 11 14 16 16 17 20 21 21 21 21 21 20 20 20 20 22 21 22 19 18 22 28 28 36 39 36 38 40 38 39 40 40 40 40 42 43 45 46
9 10 12 13 10 11 11 12 14 16 18 20 22 24 29 21 25 25 25 26 25 24 24 23 22 23 23 26 30 33 36 35 35 40 40 40 41 42 41 43 43 45 50 50 48
12 13 13 12 12 10 12 14 15 15 17 20 20 23 27 23 26 28 28 27 25 22 22 21 22 24 29 34 37 38 35 35 37 39 40 41 42 43 43 45 48 49 49 51 50
13 11 10 10 9 11 13 14 15 16 18 19 21 26 17 23 26 29 27 23 21 24 26 27 26 24 31 33 36 38 38 43 40 42 43 44 42 41 44 46 47 52 53 55 57
13 11 11 11 11 12 14 14 14 15 15 16 18 18 17 20 22 22 21 23 24 22 18 19 28 29 31 35 39 39 38 44 40 40 41 42 41 38 41 45 50 56 57 58 61
11 11 11 12 12 14 14 14 14 14 12 13 14 16 17 19 16 19 21 22 21 18 18 17 25 31 37 37 26 30 37 32 34 29 35 36 37 38 42 48 55 59 61 63 63
14 12 12 13 14 15 15 15 16 15 13 14 18 18 18 17 18 17 16 20 21 19 17 18 20 22 25 24 21 20 22 22 21 22 28 30 32 34 43 51 56 59 62 62 59
14 13 15 15 14 15 14 14 15 17 18 21 22 21 20 19 19 18 18 20 20 19 19 18 16 17 16 16 18 20 16 16 14 18 26 32 36 41 45 52 58 60 60 60 62
15 14 15 15 15 13 13 18 20 20 22 23 23 23 22 22 21 20 21 20 20 21 18 19 19 18 18 18 22 19 16 16 26 19 28 40 46 44 49 53 58 60 62 66 54
15 15 15 14 14 14 22 21 20 20 22 25 23 23 23 23 22 21 22 20 19 20 21 19 20 19 16 16 16 21 14 14 17 27 39 34 32 47 52 57 60 64 67 54 44
16 15 15 16 17 19 21 21 23 25 20 25 25 24 22 22 22 20 21 19 19 18 19 22 22 21 16 15 16 16 14 15 21 43 45 44 50 59 52 62 65 66 53 45 35
17 16 16 15 18 19 24 27 23 21 29 26 25 25 24 22 20 21 20 19 19 19 20 20 22 21 18 16 18 15 16 17 19 42 38 48 44 52 59 54 58 52 47 37 35
18 17 16 15 17 20 25 26 27 25 25 26 26 25 24 23 22 24 22 20 20 26 24 23 23 22 19 17 18 17 19 19 21 21 19 29 44 46 43 47 49 48 38 37 37
17 18 18 19 20 23 26 24 27 25 27 26 26 25 25 26 25 24 24 23 22 21 24 26 26 22 20 19 18 18 21 20 23 19 18 29 29 47 38 44 45 42 38 33 38
16 18 18 20 22 25 26 23 22 24 24 25 26 26 25 25 26 27 27 26 25 23 23 22 23 20 22 20 20 21 29 23 27 28 28 26 38 35 35 42 42 38 34 35 39
12 18 18 21 24 26 25 22 22 23 24 25 26 26 26 26 26 28 28 29 27 25 24 21 22 20 23 22 22 24 25 25 20 20 22 19 25 33 38 40 39 38 32 39 48
13 15 19 22 25 26 25 23 22 23 24 26 26 27 27 28 28 30 29 29 28 27 23 23 20 22 24 22 22 26 29 23 22 23 20 20 23 26 28 36 39 35 34 44 56
16 16 19 21 26 26 26 24 24 24 26 27 29 30 30 28 27 30 30 28 28 27 24 24 22 23 23 23 25 27 26 23 22 19 27 32 26 27 30 36 36 34 42 52 56
17 17 19 21 24 26 26 25 26 26 28 29 32 32 31 29 29 30 32 30 27 25 23 24 25 26 26 28 27 25 25 24 24 25 25 23 22 25 32 34 32 33 45 58 59
19 19 20 19 23 28 28 26 27 28 29 30 32 33 32 31 31 32 31 28 26 24 22 25 26 26 27 27 27 27 25 22 21 29 26 27 25 38 37 26 31 44 56 61 64
21 20 20 20 24 28 29 27 28 28 29 30 31 33 33 32 33 31 29 27 24 23 23 26 27 28 29 30 29 26 22 20 20 24 29 25 24 36 29 28 41 51 60 60 55
21 21 19 20 22 28 27 28 28 28 29 29 32 33 32 32 34 36 30 27 25 23 25 26 28 29 32 32 32 32 27 26 25 21 21 21 29 21 24 36 47 56 57 58 22
22 22 21 20 22 24 25 26 28 29 28 29 31 33 34 34 35 31 28 27 26 24 25 28 28 30 31 33 34 31 34 29 22 21 21 25 24 22 31 42 51 58 58 48 3
Wind_Speed
14 16 15 15 14 12 12 11 10 9 10 10 10 11 11 11 12 11 12 13 12 13 15 17 15 13 12 10 8 5 12 12 8 5 7 7 5 3 4 3 5 9 9 7 7
12 14 14 13 13 12 11 11 10 10 10 10 10 10 10 12 13 11 12 12 12 11 11 12 11 11 10 7 7 9 12 12 11 7 7 5 3 1 4 1 3 4 6 6 8
12 12 11 10 10 10 9 10 11 10 10 9 10 11 12 13 12 11 12 12 11 11 10 9 9 8 8 8 11 11 12 10 10 4 5 2 2 1 1 2 5 4 6 8 11
12 11 9 7 7 6 8 9 10 10 10 9 10 10 9 8 6 11 12 11 11 11 12 10 10 8 9 9 7 8 13 9 8 4 2 2 4 6 5 7 5 6 9 11 14
12 10 7 6 6 6 7 8 10 10 11 12 13 13 12 11 13 12 11 11 10 10 10 10 9 8 9 10 8 3 9 7 4 2 1 5 7 9 6 6 8 10 13 16 19
11 8 6 6 7 6 8 8 10 11 12 14 13 12 12 6 12 11 10 10 10 9 8 7 7 9 9 9 6 6 6 5 5 3 5 6 10 10 10 11 13 14 16 20 23
9 7 7 8 8 8 9 10 12 13 13 14 13 11 10 15 12 11 10 8 7 6 6 4 4 5 9 10 9 8 2 6 4 6 8 7 10 11 13 15 15 17 21 23 26
9 9 9 9 9 9 10 12 15 16 17 17 17 16 14 15 13 10 8 8 8 11 10 9 7 7 5 10 12 9 4 2 5 7 7 11 19 19 17 17 18 19 22 23 26
10 10 10 10 10 10 13 14 18 21 21 19 19 16 16 15 13 10 10 11 11 10 9 10 8 5 9 8 6 4 2 3 7 9 12 13 19 22 19 19 19 19 21 24 25
12 12 12 12 12 14 14 15 16 18 16 16 14 14 15 15 12 11 11 11 10 10 9 11 8 7 6 4 3 3 4 7 10 12 14 17 20 20 17 17 18 19 21 23 26
14 14 15 15 15 16 15 17 15 12 13 19 16 15 13 12 10 9 8 8 7 7 7 8 9 8 5 5 6 4 4 7 12 14 16 16 17 19 16 17 18 20 22 23 26
15 15 17 18 17 15 17 18 17 17 20 19 15 11 10 11 11 9 9 7 6 5 4 8 6 5 4 2 1 1 4 9 14 14 16 16 18 17 18 18 19 21 22 24 28
16 17 18 17 18 18 20 20 17 14 19 15 10 9 9 10 7 8 9 6 4 4 6 3 5 6 6 6 1 5 8 15 14 20 17 15 14 18 17 17 17 19 22 27 31
16 17 17 17 19 22 20 13 9 6 8 8 4 7 7 8 7 6 6 5 4 2 2 3 5 7 6 5 5 5 14 21 19 9 6 5 5 11 13 14 15 20 24 26 35
15 15 15 17 22 18 8 6 3 3 1 2 8 6 7 4 5 5 4 4 4 3 2 1 3 3 7 7 5 9 18 22 10 4 8 10 6 8 9 10 13 19 23 32 39
14 14 14 19 18 8 6 5 3 3 3 3 5 6 7 6 6 6 6 5 4 3 2 2 3 4 9 12 7 12 22 13 7 3 5 2 3 3 5 9 14 19 27 36 42
14 13 14 15 12 5 4 3 3 3 7 5 5 5 4 4 3 4 5 6 5 2 3 3 4 5 8 14 8 11 17 5 3 3 5 6 5 11 13 15 17 23 31 39 42
14 12 11 12 10 7 4 4 3 7 4 7 6 4 3 1 3 2 2 5 8 7 2 2 2 5 9 12 10 11 15 5 6 6 11 14 5 5 13 15 17 24 36 40 41
13 12 11 11 9 7 4 3 3 6 6 7 4 3 2 4 2 1 2 4 7 9 4 5 3 5 9 11 10 9 8 8 7 9 6 2 8 13 11 15 20 32 40 40 44
13 12 11 11 9 7 4 4 6 8 6 4 2 1 2 3 3 2 3 3 6 10 7 7 3 5 10 9 9 9 13 6 6 6 9 8 7 6 11 16 25 36 39 41 46
14 12 11 12 9 6 4 5 8 7 5 3 2 1 2 3 3 2 2 3 7 9 7 8 4 7 10 6 9 12 10 6 7 4 5 7 8 15 15 19 33 38 39 42 44
15 13 12 12 10 6 4 5 5 5 4 3 2 2 2 4 4 1 2 5 6 8 7 8 3 8 11 9 10 13 12 11 5 3 8 8 9 15 18 28 38 36 39 42 38
17 14 14 13 10 7 4 4 3 3 2 3 3 4 4 4 3 3 5 6 6 8 7 9 6 6 9 8 14 16 19 16 13 13 12 6 11 24 25 33 33 36 39 40 36
18 15 15 14 12 9 5 4 3 2 1 4 4 4 4 5 4 5 6 5 8 7 6 10 8 6 8 16 21 23 22 20 16 7 9 17 21 20 29 33 33 35 39 37 35
21 18 16 15 15 11 8 5 4 1 1 4 4 5 5 4 7 5 7 8 8 6 7 10 11 14 17 22 20 21 19 19 19 16 15 19 26 26 30 30 32 35 36 33 34
24 18 17 13 16 12 10 7 4 1 2 4 5 6 6 6 7 10 8 9 8 8 10 11 10 18 25 15 21 26 18 15 19 18 23 21 22 21 24 28 30 34 33 32 33
26 21 16 16 10 15 12 8 5 3 2 4 5 6 7 8 10 10 10 11 12 12 12 11 12 16 9 20 24 12 13 14 16 17 20 19 20 24 26 27 31 33 31 32 27
Wind_Direction
120 116 109 99 95 95 96 97 100 109 112 107 101 97 94 95 96 100 104 106 105 105 125 161 159 154 142 142 140 145 113 104 102 86 80 72 38 21 133 143 191 230 245 246 253
131 124 116 107 97 93 92 93 97 104 109 114 104 103 104 103 94 96 103 106 110 114 116 125 166 188 199 188 154 153 119 111 96 80 89 100 64 71 152 157 295 224 238 262 283
141 132 123 111 98 85 87 90 92 104 115 116 111 113 108 98 92 98 98 99 103 114 119 125 135 143 152 138 137 137 116 113 115 99 91 34 20 3 286 284 288 273 288 295 293
146 143 134 119 110 101 85 89 97 106 109 116 122 113 102 100 101 92 92 94 98 103 107 115 119 140 139 131 132 139 129 137 136 140 83 342 331 335 305 284 267 271 277 284 291
150 149 138 132 122 109 89 96 101 103 100 100 102 100 88 103 109 98 95 94 93 100 100 101 110 121 128 127 124 162 134 135 116 86 312 276 302 303 280 270 287 292 294 296 298
151 147 146 139 123 115 103 105 103 104 105 103 103 103 105 139 104 102 101 97 98 97 102 101 114 118 121 132 136 138 139 156 145 186 241 278 302 297 298 303 301 294 295 297 300
154 154 148 139 133 122 115 111 111 105 105 105 102 103 102 111 109 105 102 100 103 104 99 113 138 136 132 132 121 119 154 150 185 242 277 285 296 293 300 295 290 290 294 298 303
151 147 144 139 129 123 119 118 113 109 107 107 99 98 110 106 106 101 105 100 99 97 91 98 100 119 127 130 126 126 132 158 268 264 262 286 285 295 293 291 292 295 298 303 306
149 146 146 136 127 129 126 123 111 109 105 98 99 102 93 96 87 100 106 103 101 90 92 107 107 118 123 128 137 178 249 219 270 280 275 277 281 286 281 283 289 295 299 303 309
139 140 138 129 131 131 128 134 117 112 104 96 96 99 96 97 92 93 100 103 92 73 86 92 145 129 144 174 293 211 213 244 249 273 265 268 274 277 274 281 285 293 300 306 312
130 129 127 127 128 126 130 121 116 109 106 101 97 97 99 101 94 87 99 99 88 75 80 113 121 134 161 209 229 243 250 277 290 287 284 285 284 281 280 278 285 293 298 304 310
123 125 127 128 130 129 125 120 115 110 103 96 90 89 98 95 84 88 96 90 83 83 105 95 99 93 74 32 203 176 321 311 306 300 294 288 278 272 269 273 282 290 297 306 317
122 128 127 130 131 131 125 117 111 104 91 85 80 85 86 87 96 100 94 73 67 93 89 132 97 62 37 35 304 291 325 319 302 306 291 280 273 265 267 273 285 295 307 322 328
126 131 131 134 136 132 124 117 105 98 85 59 69 67 106 96 91 101 89 65 56 69 76 59 64 43 28 359 342 300 322 318 311 301 302 284 295 276 270 272 289 301 314 323 328
127 139 138 142 138 132 126 130 104 108 143 58 68 83 95 98 118 82 81 47 41 57 65 101 69 26 19 4 8 335 338 322 320 249 289 279 265 257 270 276 289 302 319 328 334
132 139 149 154 153 140 118 109 94 98 90 101 99 83 82 88 94 86 56 34 31 40 59 58 11 357 7 2 358 354 346 322 327 270 258 240 273 231 254 267 292 312 330 332 331
140 142 157 172 177 162 128 93 71 70 136 133 117 87 91 93 88 73 52 44 42 28 342 328 336 351 356 1 355 358 6 314 262 265 321 288 272 250 280 290 306 326 330 331 333
148 146 154 165 166 154 129 78 72 130 136 142 124 90 85 104 71 50 38 37 36 23 329 8 312 338 351 2 355 2 20 18 313 318 310 291 245 270 289 292 314 328 332 333 335
156 157 156 156 147 133 109 72 115 136 136 138 114 90 70 50 46 3 360 33 29 20 26 3 301 314 343 352 3 342 2 339 285 272 269 250 290 303 286 302 320 328 334 336 335
165 166 168 159 144 126 96 105 126 123 124 123 88 75 59 23 11 359 358 358 13 12 17 356 322 316 335 340 339 347 343 335 338 312 321 299 296 292 291 307 325 333 336 336 337
172 172 178 170 154 134 106 120 125 123 114 102 67 45 15 357 356 354 8 3 353 2 3 352 337 322 329 320 316 325 330 334 315 244 296 312 342 311 307 314 330 333 333 336 338
179 179 188 184 175 158 125 116 127 134 107 79 32 16 357 351 343 16 356 352 351 354 353 348 316 318 310 315 321 320 316 318 309 333 263 272 295 307 316 326 327 329 334 335 337
186 190 192 193 187 182 158 134 130 131 84 27 9 354 345 345 342 332 340 340 346 345 344 342 332 327 318 332 326 316 313 309 298 287 253 279 325 315 316 322 324 326 332 337 339
190 193 195 197 196 188 189 180 159 147 37 0 351 348 340 336 341 325 329 329 333 334 329 329 309 304 292 299 306 304 308 307 294 265 292 275 292 307 313 318 323 333 336 340 340
194 200 198 205 200 195 195 186 180 161 349 348 349 341 336 335 334 341 329 328 329 325 317 327 309 320 320 314 312 308 307 300 292 282 275 299 299 307 314 323 328 335 337 338 341
200 204 204 207 205 205 205 203 201 224 330 339 330 332 328 322 319 318 319 324 319 317 310 315 303 319 323 324 324 316 310 297 297 294 293 298 302 310 317 324 330 335 338 341 346
205 207 209 211 205 211 214 216 215 234 301 320 321 320 319 320 318 316 315 313 304 302 302 304 311 318 297 320 316 307 328 311 303 310 305 301 302 314 323 329 335 338 341 344 349